[[{"header":{"parameterUnit":"m.s-1","parameterCategory":1,"la1":30.2991,"la2":30.254,"lo1":-89.0895,"lo2":-89.0444,"dy":0.0017,"dx":0.0017,"nx":28,"ny":28,"refTime":"2025-04-30T09:00:00:Z","depth":0,"parameterNumber":2,"parameterNumberName":"U-component_of_WINDS"},"data":[0,0,0,0,0,0,0,0,0,0,0,0,0,0,0,0,0,0,0,0,0,0,0,0,0,0,0,0,0,0,0,0,0,0,0,0,0,0,0,0,0,0,0,0,0,0,0,0,0,0,0,0,0,0,0,0,0,0,-0.6707,-0.6709,0,-0.6862,-0.6864,-0.6866,-0.6948,-0.6948,-0.6948,-0.6948,-0.7108,-0.7112,-0.7116,0,0,0,0,0,0,0,0,0,0,0,0,0,-0.6483,-0.6486,-0.6707,-0.6709,-0.6711,-0.6862,-0.6864,-0.6866,-0.6948,-0.6948,-0.6948,-0.6949,-0.7107,-0.7112,-0.7116,0,0,0,0,0,0,0,0,0,0,0,0,0,-0.6603,-0.6487,-0.6706,-0.677,-0.6777,-0.6862,-0.6864,-0.6867,-0.6948,-0.6948,-0.6948,-0.6949,-0.7105,-0.7111,-0.7117,-0.7151,0,0,-0.7136,-0.7139,0,0,0,0,0,0,0,0,-0.6596,-0.6611,-0.6758,-0.6765,-0.6774,-0.6886,-0.6844,-0.6962,-0.6948,-0.6883,-0.6948,-0.6949,-0.7034,-0.7046,-0.7075,-0.7159,-0.7165,-0.7137,-0.714,-0.7143,-0.7145,0,0,0,0,0,0,0,-0.6588,-0.6605,-0.6768,-0.676,-0.677,-0.6791,-0.6808,-0.6867,-0.6955,-0.6889,-0.6895,-0.6912,-0.7038,-0.7069,-0.7079,-0.7168,-0.7136,-0.7142,-0.7146,-0.7148,-0.729,-0.729,0,0,0,0,0,0,-0.6569,-0.6597,-0.6763,-0.6773,-0.6684,-0.6795,-0.6814,-0.685,-0.6955,-0.6971,-0.6912,-0.6916,-0.7058,-0.7072,-0.7085,-0.7133,-0.7143,-0.7149,-0.7152,-0.729,-0.729,-0.729,0,0,0,0,0,0,-0.6564,-0.6583,-0.6757,-0.6687,-0.6711,-0.6798,-0.6838,-0.6853,-0.6883,-0.6973,-0.6989,-0.6927,-0.7059,-0.7076,-0.7135,-0.714,-0.7151,-0.7157,-0.729,-0.729,-0.729,-0.7229,0,0,0,0,0,0,-0.6557,-0.6581,-0.6594,-0.6687,-0.6714,-0.6803,-0.6838,-0.6856,-0.6894,-0.69,-0.6991,-0.7006,-0.706,-0.7125,-0.7141,-0.7149,-0.7162,-0.729,-0.729,-0.729,-0.7231,-0.7227,-0.7224,0,0,0,0,0,-0.6549,-0.657,-0.6594,-0.6614,-0.6732,-0.6803,-0.6819,-0.6881,-0.6894,-0.6908,-0.6966,-0.7003,-0.7137,-0.713,-0.7149,-0.7159,-0.729,-0.729,-0.729,-0.7233,-0.7228,-0.7224,0,0,0,0,0,0,-0.6475,-0.6583,-0.6611,-0.6663,-0.6723,-0.6817,-0.6837,-0.6874,-0.6932,-0.6935,-0.701,-0.703,-0.7081,-0.7126,-0.7117,-0.7198,-0.7217,-0.7221,-0.7167,-0.7163,-0.716,-0.7148,-0.7167,0,0,0,0,0,-0.6465,-0.6513,-0.6605,-0.6642,-0.6671,-0.6748,-0.6782,-0.6824,-0.689,-0.6916,-0.6978,-0.7041,-0.7097,-0.7133,-0.7189,-0.7238,-0.726,-0.7254,-0.725,-0.7247,-0.7249,-0.728,-0.7279,-0.729,-0.729,-0.729,0,0,-0.6444,-0.6509,-0.6535,-0.6629,-0.6681,-0.673,-0.6769,-0.6819,-0.6857,-0.6924,-0.6983,-0.7031,-0.7106,-0.7159,-0.7186,-0.7198,-0.7251,-0.7247,-0.7243,-0.7248,-0.728,-0.7279,-0.7278,-0.729,-0.729,-0.729,0,0,-0.6431,-0.6485,-0.6522,-0.6574,-0.6652,-0.6704,-0.6713,-0.6802,-0.6837,-0.6897,-0.6949,-0.6995,-0.709,-0.7142,-0.7181,-0.719,-0.7227,-0.7207,-0.7188,-0.7217,-0.7216,-0.7216,-0.722,-0.7221,-0.7209,-0.7209,-0.7209,0,-0.6396,-0.6471,-0.6537,-0.6585,-0.6625,-0.6689,-0.6728,-0.6775,-0.6868,-0.6894,-0.6906,-0.7029,-0.7084,-0.7151,-0.7154,-0.7183,-0.7196,-0.7197,-0.7211,-0.7211,-0.7212,-0.7217,-0.7219,-0.7206,-0.7206,-0.7206,-0.7207,0,-0.6424,-0.6476,-0.6497,-0.6586,-0.6629,-0.6672,-0.6745,-0.6781,-0.682,-0.6871,-0.6933,-0.7001,-0.7074,-0.7093,-0.7132,-0.7167,-0.7172,-0.7196,-0.7217,-0.7207,-0.7213,-0.7216,-0.7202,-0.7203,-0.7204,-0.7204,0,0,-0.6369,-0.6495,-0.6501,-0.6543,-0.6635,-0.6677,-0.6723,-0.6795,-0.6825,-0.6887,-0.6929,-0.7009,-0.7033,-0.7077,-0.7122,-0.7147,-0.7152,-0.7169,-0.7172,-0.7164,-0.7198,-0.7179,-0.7181,-0.7177,-0.7178,-0.7179,-0.7192,0,-0.637,-0.6457,-0.6518,-0.6581,-0.6631,-0.6693,-0.6734,-0.6795,-0.6845,-0.6895,-0.6949,-0.7005,-0.7031,-0.7059,-0.7087,-0.7146,-0.716,-0.7146,-0.7218,-0.722,-0.7198,-0.7184,-0.7164,-0.7174,-0.7195,-0.7195,-0.7195,0,-0.6383,-0.6444,-0.6512,-0.6601,-0.6624,-0.6659,-0.6731,-0.6778,-0.6849,-0.6883,-0.6933,-0.698,-0.7033,-0.7049,-0.7124,-0.7113,-0.7147,-0.718,-0.7182,-0.7192,-0.7207,-0.7194,-0.7178,-0.7179,-0.72,-0.7199,-0.7199,0,-0.6337,-0.6436,-0.649,-0.6524,-0.6628,-0.6652,-0.6697,-0.6769,-0.6809,-0.6871,-0.6898,-0.6966,-0.7003,-0.7055,-0.7119,-0.7124,-0.7188,-0.7209,-0.7219,-0.7218,-0.723,-0.7228,-0.722,-0.725,-0.725,-0.725,-0.725,0,-0.6333,-0.6372,-0.6472,-0.6505,-0.6551,-0.6622,-0.6667,-0.6717,-0.6781,-0.6826,-0.6883,-0.6924,-0.7007,-0.7058,-0.7109,-0.7164,-0.718,-0.721,-0.7223,-0.7206,-0.7202,-0.7229,-0.723,-0.725,-0.725,-0.725,-0.725,0,-0.6289,-0.6357,-0.642,-0.6515,-0.6539,-0.657,-0.6651,-0.6686,-0.6739,-0.6795,-0.6813,-0.6896,-0.696,-0.7029,-0.7116,-0.715,-0.7203,-0.7221,-0.7179,-0.7187,-0.7193,-0.7192,-0.7203,-0.7208,-0.7233,-0.7232,-0.7232,0,-0.6282,-0.6314,-0.6412,-0.6446,-0.649,-0.6544,-0.6585,-0.6657,-0.6698,-0.6783,-0.6808,-0.6876,-0.6935,-0.7034,-0.7102,-0.717,-0.719,-0.719,-0.7201,-0.7183,-0.7192,-0.719,-0.7194,-0.7186,-0.7185,-0.7185,-0.7184,0,-0.6263,-0.6295,-0.6352,-0.6421,-0.6469,-0.6527,-0.6587,-0.6612,-0.6696,-0.6739,-0.6805,-0.6851,-0.694,-0.7007,-0.7083,-0.713,-0.7172,-0.718,-0.7187,-0.7169,-0.7144,-0.7159,-0.717,-0.718,-0.718,-0.7181,-0.7181,-0.7181,-0.6238,-0.627,-0.6345,-0.6407,-0.646,-0.6516,-0.6554,-0.6612,-0.6669,-0.6747,-0.6786,-0.6853,-0.6926,-0.7032,-0.7078,-0.7131,-0.7144,-0.7153,-0.7155,-0.7156,-0.7152,-0.7134,-0.7145,-0.7146,-0.7146,-0.7146,-0.7146,0,-0.6223,-0.6274,-0.6331,-0.6414,-0.6463,-0.6498,-0.6567,-0.6606,-0.6664,-0.6728,-0.6785,-0.6862,-0.6928,-0.7003,-0.7074,-0.7102,-0.7123,-0.7119,-0.7118,-0.7128,-0.7136,-0.7124,-0.7101,-0.7101,-0.7101,-0.7101,-0.7101,-0.7101,-0.6221,-0.6278,-0.6319,-0.6404,-0.6455,-0.6521,-0.6557,-0.661,-0.6662,-0.6745,-0.68,-0.6849,-0.6918,-0.6995,-0.7058,-0.7078,-0.7102,-0.7092,-0.7118,-0.7124,-0.7127,-0.7131,-0.712,-0.7096,-0.7096,-0.7106,-0.7106,-0.7106]},{"header":{"parameterUnit":"m.s-1","parameterCategory":1,"la1":30.2991,"la2":30.254,"lo1":-89.0895,"lo2":-89.0444,"dy":0.0017,"dx":0.0017,"nx":28,"ny":28,"refTime":"2025-04-30T09:00:00:Z","depth":0,"parameterNumber":3,"parameterNumberName":"V-component_of_WINDS"},"data":[0,0,0,0,0,0,0,0,0,0,0,0,0,0,0,0,0,0,0,0,0,0,0,0,0,0,0,0,0,0,0,0,0,0,0,0,0,0,0,0,0,0,0,0,0,0,0,0,0,0,0,0,0,0,0,0,0,0,1.5739,1.574,0,1.5822,1.5823,1.5824,1.5835,1.5834,1.5833,1.5832,1.5915,1.5918,1.592,0,0,0,0,0,0,0,0,0,0,0,0,0,1.5589,1.5592,1.5739,1.574,1.5741,1.5822,1.5823,1.5824,1.5835,1.5834,1.5833,1.5832,1.5914,1.5917,1.5921,0,0,0,0,0,0,0,0,0,0,0,0,0,1.5661,1.5593,1.5739,1.5756,1.5759,1.5822,1.5823,1.5825,1.5835,1.5834,1.5832,1.5831,1.5913,1.5917,1.5921,1.5972,0,0,1.5935,1.5937,0,0,0,0,0,0,0,0,1.5657,1.5667,1.5753,1.5755,1.5758,1.5817,1.5801,1.5874,1.5835,1.5806,1.5832,1.5831,1.5883,1.589,1.5908,1.5976,1.598,1.5935,1.5938,1.594,1.5941,0,0,0,0,0,0,0,1.5652,1.5663,1.5772,1.5754,1.5757,1.576,1.5769,1.5814,1.585,1.5808,1.5809,1.5819,1.5884,1.5904,1.591,1.5981,1.5935,1.5939,1.5942,1.5943,1.6096,1.6098,0,0,0,0,0,0,1.5644,1.5659,1.5769,1.5775,1.5704,1.5763,1.5773,1.5799,1.585,1.5856,1.582,1.5819,1.5897,1.5905,1.5913,1.5977,1.594,1.5944,1.5946,1.6095,1.6097,1.6098,0,0,0,0,0,0,1.5641,1.5654,1.5766,1.5717,1.5732,1.5767,1.5796,1.5801,1.5821,1.5858,1.5865,1.5833,1.5896,1.5907,1.5958,1.598,1.5946,1.595,1.6093,1.6096,1.6097,1.6104,0,0,0,0,0,0,1.5637,1.5653,1.5673,1.5718,1.5734,1.581,1.5797,1.5804,1.5829,1.5828,1.5873,1.5879,1.5896,1.5951,1.5962,1.5985,1.5953,1.6091,1.6094,1.6097,1.6102,1.6106,1.611,0,0,0,0,0,1.5631,1.567,1.5674,1.5687,1.576,1.5811,1.5821,1.584,1.583,1.5851,1.5875,1.5877,1.5976,1.5956,1.5969,1.5993,1.609,1.6093,1.6097,1.61,1.6105,1.611,0,0,0,0,0,0,1.5626,1.5677,1.5681,1.5736,1.5769,1.5813,1.5839,1.5845,1.5881,1.5879,1.5902,1.5911,1.5962,1.5983,1.596,1.6046,1.6032,1.6038,1.603,1.6036,1.6039,1.6033,1.5957,0,0,0,0,0,1.5632,1.567,1.5711,1.5756,1.5773,1.5803,1.5826,1.5839,1.5874,1.5888,1.5916,1.595,1.5988,1.6013,1.605,1.6105,1.6115,1.6128,1.6132,1.6135,1.614,1.6171,1.6178,1.6109,1.6109,1.6109,0,0,1.5643,1.5675,1.5698,1.5756,1.5783,1.5822,1.5815,1.5856,1.5885,1.5894,1.5944,1.5966,1.6005,1.6059,1.6084,1.6078,1.6161,1.6139,1.6141,1.6145,1.6175,1.6182,1.6188,1.6111,1.6111,1.611,0,0,1.5683,1.5711,1.5752,1.578,1.5822,1.5843,1.5852,1.5896,1.5911,1.5962,1.597,1.6005,1.6071,1.6099,1.6121,1.6174,1.6178,1.6186,1.6205,1.6236,1.6241,1.6246,1.6265,1.6272,1.619,1.619,1.619,0,1.5692,1.5751,1.5772,1.5813,1.5839,1.585,1.5892,1.5918,1.597,1.5987,1.598,1.6063,1.609,1.6151,1.6164,1.6182,1.6194,1.618,1.6239,1.6244,1.6249,1.6268,1.6275,1.6191,1.6191,1.6191,1.6191,0,1.576,1.58,1.5828,1.588,1.5908,1.5949,1.5977,1.6003,1.6013,1.6034,1.6087,1.612,1.6165,1.618,1.619,1.6243,1.6238,1.6234,1.6221,1.6256,1.6274,1.6281,1.6192,1.6192,1.6191,1.6191,0,0,1.5798,1.5862,1.5871,1.5895,1.5943,1.5975,1.6017,1.6062,1.6085,1.612,1.6156,1.6212,1.621,1.6236,1.6249,1.6276,1.6316,1.6269,1.6271,1.6277,1.6377,1.638,1.6388,1.6319,1.6321,1.6322,1.6374,0,1.5844,1.592,1.5941,1.6005,1.6043,1.6055,1.6092,1.6125,1.6146,1.6182,1.6204,1.6244,1.6238,1.6254,1.6281,1.6306,1.6337,1.6302,1.6353,1.6354,1.6343,1.6397,1.6399,1.6447,1.6381,1.6382,1.6383,0,1.5908,1.5946,1.6014,1.6059,1.6076,1.6108,1.6152,1.6186,1.6224,1.6237,1.6267,1.6278,1.6322,1.6307,1.6368,1.6344,1.6366,1.6381,1.6384,1.6389,1.6371,1.6404,1.6462,1.647,1.6394,1.6394,1.6393,0,1.593,1.5998,1.6048,1.6068,1.6121,1.6144,1.6167,1.6204,1.623,1.6268,1.6285,1.6328,1.6351,1.6383,1.6405,1.6392,1.6465,1.6451,1.6477,1.6477,1.6492,1.6491,1.6555,1.6506,1.6506,1.6506,1.6505,0,1.5979,1.6021,1.6059,1.609,1.6137,1.616,1.6206,1.6229,1.6263,1.6298,1.6311,1.6343,1.6371,1.6407,1.6425,1.6473,1.6484,1.6496,1.65,1.6495,1.6493,1.6509,1.6506,1.6507,1.6507,1.6507,1.6506,0,1.6011,1.6039,1.6094,1.614,1.6153,1.6185,1.6225,1.6255,1.6277,1.6322,1.6333,1.6368,1.6411,1.6437,1.6492,1.6504,1.6558,1.656,1.6545,1.6547,1.6572,1.657,1.6649,1.6661,1.6604,1.6604,1.6605,0,1.6041,1.6073,1.6124,1.6149,1.6172,1.6212,1.624,1.6264,1.6292,1.6339,1.6364,1.6409,1.6446,1.6515,1.6545,1.6587,1.6591,1.6616,1.6597,1.6591,1.6592,1.659,1.6593,1.6619,1.6619,1.662,1.662,0,1.6091,1.6104,1.6143,1.6187,1.622,1.6255,1.6291,1.6311,1.6341,1.6372,1.6418,1.6447,1.6504,1.6548,1.6593,1.6616,1.6624,1.6626,1.6634,1.6629,1.6619,1.6626,1.6554,1.6624,1.6624,1.6623,1.6623,1.6623,1.6123,1.6153,1.6194,1.6237,1.6267,1.63,1.6331,1.6358,1.6396,1.6445,1.6457,1.6506,1.6544,1.6606,1.663,1.6668,1.6664,1.6676,1.6679,1.6681,1.6682,1.6614,1.6676,1.6676,1.6676,1.6676,1.6676,0,1.6175,1.6202,1.6241,1.6291,1.6326,1.6331,1.6371,1.6399,1.6441,1.6477,1.6514,1.6567,1.661,1.6644,1.6688,1.6712,1.6717,1.6723,1.6722,1.6727,1.6683,1.6672,1.6719,1.6719,1.6719,1.6719,1.6719,1.6719,1.6205,1.6256,1.6273,1.6339,1.6366,1.6414,1.6436,1.6467,1.6496,1.6555,1.6591,1.6613,1.6648,1.6696,1.6736,1.6745,1.6761,1.6767,1.6776,1.6735,1.673,1.6725,1.6715,1.677,1.677,1.6817,1.6817,1.6818]}]]